www.pogodaiklimat.ru

ПОГОДА в Ханфорде, CA

  • Прогноз погоды в Ханфорде
  • Монитор погоды в Ханфорде
  • Климат в Ханфорде

АРХИВ ПОГОДЫ в Ханфорде

Время (UTC), дата Ветер
(напр.,м/с)
 
Видим.   Явления Облачность Т
(С)
Тd
(С)
f
(%)
Тe
(С)
Тes
(С)
Комфортность

P
(гПа)

Po
(гПа)
Тmin
(С)
Tmax
(С)
R
(мм)
SD
(см)
07:53 25.03 СВ  8 км  дымка  ясно  +7.2  +6.1  93  +5  +5    1020.7  1011.6         
08:53 25.03   8 км  дымка  ясно  +6.7  +5.6  93  +6  +6    1020.4  1011.3         
09:40 25.03 Ю  3 км  дымка  ясно  +5.6  +5.0  96  +3  +3      1010.6         
09:48 25.03 Ю  5 км  дымка  ясно  +7.0  +6.0  93  +5  +5      1010.6         
09:49 25.03 Ю  5 км  дымка  ясно  +6.7  +5.6  93  +5  +5    1019.8  1010.6         
10:53 25.03   5 км  дымка  ясно  +6.1  +5.6  97  +5  +5    1019.5  1010.3  +5.6  +8.9     
11:04 25.03 В  4 км  дымка  ясно  +6.1  +5.0  93  +3  +3      1010.3         
11:28 25.03   5 км  дымка  ясно  +6.1  +5.0  93  +5  +5      1010.3         
11:53 25.03   5 км  дымка  ясно  +6.1  +5.0  93  +5  +5    1019.3  1009.9         
12:43 25.03   4 км  дымка  ясно  +5.6  +4.4  92  +5  +5      1010.3         
12:53 25.03   5 км  дымка  ясно  +5.6  +4.4  92  +5  +5    1019.9  1010.6         
13:03 25.03   3 км  дымка  ясно  +5.6  +4.4  92  +5  +5      1010.9         
13:10 25.03   2 км  дымка  ясно  +5.0  +4.4  96  +4  +4      1010.9         
13:53 25.03 В  3 км  дымка  ясно  +7.2  +6.7  97  +5  +5    1020.5  1011.3         
14:10 25.03   5 км  дымка  ясно  +8.3  +7.2  93  +7  +9      1011.6         
14:53 25.03 В  6 км  дымка  ясно  +10.0  +7.8  86  +9  +10    1021.1  1011.9         
15:53 25.03 В  11 км    ясно  +14.4  +10.0  75  +13  +16    1021.0  1011.9         
16:53 25.03 В  16 км    ясно  +18.9  +8.9  52  +20  +27    1020.8  1011.6  +5.0  +18.9     
17:53 25.03 ЮВ  16 км    ясно  +20.6  +7.8  44  +23  +35  комфорт  1020.7  1011.6         
18:53 25.03 ЮЗ  16 км    ясно  +22.2  +6.7  37  +23  +36  комфорт  1020.1  1010.9         
19:53 25.03 Ю  16 км    ясно  +23.3  +6.1  33  +24  +37  комфорт  1019.3  1010.3         
20:53 25.03 Ю  16 км    ясно  +25.0  +5.0  28  +25  +36  комфорт  1018.2  1009.3         
21:53 25.03 ЮЗ  16 км    ясно  +25.0  +5.6  29  +25  +32  комфорт  1017.8  1008.6         
22:53 25.03 ЮЗ  16 км    ясно  +25.0  +5.0  28  +25  +31  комфорт  1017.1  1007.9  +18.9  +25.6     
23:53 25.03 Ю  16 км    ясно  +23.9  +3.3  26  +23  +28  комфорт  1016.6  1007.6         
00:53 26.03 ЮЗ  16 км    ясно  +22.2  0.0  23  +22  +23  комфорт  1016.4  1007.3         
01:53 26.03 ЮЗ  16 км    ясно  +15.0  +4.4  49  +14  +14    1016.6  1007.6         
02:53 26.03 ЮЗ  16 км    ясно  +15.6  +5.0  49  +15  +15    1017.2  1007.9         
03:53 26.03 ЮЗ  16 км    ясно  +17.2  0.0  31  +17  +17    1017.6  1008.6         
04:53 26.03 Ю  16 км    ясно  +12.2  +6.1  66  +12  +12    1017.8  1008.6  +12.2  +25.0     
05:53 26.03   16 км    ясно  +10.0  +6.7  80  +9  +9    1018.0  1008.9         
06:53 26.03 СЗ  16 км    ясно  +10.6  +3.3  61  +9  +9    1018.2  1009.3         
07:53 26.03   16 км    ясно  +8.9  +5.6  80  +8  +8    1018.1  1008.9         
08:53 26.03 СЗ  16 км    ясно  +8.3  +5.6  83  +7  +7    1017.7  1008.6         
09:53 26.03   16 км    ясно  +7.8  +6.1  89  +7  +7    1017.1  1007.9         
10:53 26.03   11 км    ясно  +7.8  +6.7  93  +7  +7    1016.8  1007.9  +7.2  +12.8     
11:53 26.03   11 км    ясно  +6.7  +5.6  93  +6  +6    1017.4  1008.3         
12:53 26.03   10 км  дымка  ясно  +6.7  +5.6  93  +6  +6    1017.5  1008.3         
13:53 26.03 ЮВ  8 км  дымка  ясно  +8.3  +7.2  93  +7  +7    1018.0  1008.9         
14:38 26.03   10 км  дымка  5/5 180 м  +10.6  +8.9  89  +10  +11      1008.9         
14:46 26.03   10 км  дымка  8/8 150 м  +10.6  +8.9  89  +10  +10      1008.9         
14:53 26.03   10 км  дымка  8/8 150 м  +11.1  +8.9  86  +10  +11    1018.2  1008.9         
15:14 26.03   11 км    5/5 150 м  +12.8  +10.0  83  +12  +15      1008.9         
15:53 26.03 С  14 км    ясно  +15.6  +11.1  75  +15  +19    1018.3  1009.3         
16:53 26.03 З  16 км    ясно  +17.2  +10.0  63  +17  +23    1018.7  1009.6  +6.1  +17.2     
17:53 26.03 нст  16 км    ясно  +18.9  +8.9  52  +20  +33  опасность
простуды 
1018.2  1008.9         
18:53 26.03   16 км    ясно  +20.6  +8.9  47  +22  +41  комфорт  1017.5  1008.3         
19:53 26.03 ЮВ  16 км    ясно  +21.7  +8.9  44  +23  +37  комфорт  1016.5  1007.3         

 

Местоположение метеостанции Hanford Municipal Airport: широта 36.3186 долгота -119.6289 высота над уровнем моря 74 м.

В архиве по умолчанию представлена погода в Ханфорде за последние 1-2 суток. Обновление информации о фактической погоде в базе происходит ежечасно! Архивные данные за месяц целиком и за предыдущие месяцы Вы можете получить, выбрав интересующий диапазон дат из раскрывающегося списка и нажав кнопку "Ввод!".

Внимание! Архив погоды МЕТАР в базе сайта хранится не более 60 дней. Нет смысла пытаться выбрать более раннюю дату.

Внимание! Время в таблицах - всемирное. Для получения местного времени необходимо прибавить поправку, которая в Ханфорде равна -8 ч.

Ветер - указаны скорость ветра в м/с и направление, откуда дует ветер: С - северный, СВ - северо-восточный, В - восточный, ЮВ - юго-восточный, Ю - южный, ЮЗ - юго-западный, З - западный, СЗ - северо-западный.
Видимость - горизонтальная дальность видимости в метрах или километрах. При видимости от 1 до 10 км при отсутствии осадков обычно наблюдается дымка, при ухудшении видимости до 1 км и менее - туман. В сухую погоду видимость может ухудшаться дымом, пылью или мглою.
Атмосферные явления - указаны явления, наблюдавшиеся в указанный момент времени.
Облачность - указаны через наклонную черту верхняя и нижняя облачность в баллах и высота нижней границы облаков в метрах. Внимание: облачность, как и прочие метеорологические величины в США измеряются автоматическими метеостанциями. Указанные значения в баллах носят условный характер и показывают процент времени, в течение которого, в среднем, лазерный луч высотомера отражался от облаков обратно.
T - Температура воздуха - температура, измеренная на высоте 2 м над землей.
Td - Температура точки росы - температура, при понижении до которой содержащийся в воздухе водяной пар достигнет насыщения.
f - Относительная влажность воздуха - влажноcть воздуха, измеренная на высоте 2 м над землей.
Te - Эффективная температура - температура, которую ощущает одетый по сезону человек в тени. Характеристика душности погоды. При расчете учитывается влияние влажности воздуха и скорости ветра на теплоощущения человека.
Tes - Эффективная температура на солнце - температура, которую ощущает человек, с поправкой на солнечный нагрев. Характеристика знойности погоды. Зависит от высоты солнца над горизонтом, облачности и скорости ветра. Ночью, в пасмурную погоду, а также при ветре 12 м/с и более поправка равна нулю.
P - Атмосферное давление - приведенное к уровню моря атмосферное давление.
Po - Атмосферное давление - измеренное на уровне метеостанции атмосферное давление.
Tmin - Минимальная температура - минимум температуры воздуха на высоте 2 м над землей.
Tmax - Максимальная температура - максимум температуры воздуха на высоте 2 м над землей.
R - Количество осадков - Количество выпавших осадков за 3 или 6 часов, мм.
SD - Снежный покров - Высота снежного покрова, см.